Tracking 31027 objects as of 18-Jul-2025
HD Live streaming from Space Station
objects crossing your sky now

CUBESX-HSE-3

Track CUBESX-HSE-3 now!
10-day predictions
CUBESX-HSE-3 is classified as:


NORAD ID: 57178
Int'l Code: 2023-091N
Perigee: 499.6 km
Apogee: 518.4 km
Inclination: 97.6 °
Period: 94.7 minutes
Semi major axis: 6879 km
RCS: Unknown
Launch date: June 27, 2023
Source: (TBD)
Launch site: VOSTOCHNY COSMODROME (VOSTO)

Uplink (MHz):
Downlink (MHz): 436.570
Beacon (MHz):
Mode: 2k4/4k8*/9k6 GMSK_USP
Call sign: RS42S
Status: Active

Your satellite tracking list
GLOBALSTAR M046
Track 1 satellite(s)




NASA's NSSDC Master Catalog

Two Line Element Set (TLE):
1 57178U 23091N   25199.59926635  .00007259  00000-0  32668-3 0  9995
2 57178  97.5588 257.4866 0013606 179.9247 180.1993 15.21319991113541
Source of the keplerian elements: AFSPC